Regional Weather Roundup
Issued by NWS Memphis, TN

Home | Current Version | Previous Version | Text Only | Print | Product List | Glossary On
Versions: 1 2 3 4 5 6 7 8 9 10 11 12 13 14 15 16 17 18 19 20 21 22 23 24 25 26 27 28 29 30 31 32 33 34 35 36 37 38 39 40 41 42 43 44 45 46 47 48 49 50
000
ASUS44 KMEG 191810
RWRMEG
MEMPHIS CWA HOURLY WEATHER ROUNDUP
NATIONAL WEATHER SERVICE MEMPHIS TN
1200 PM CST SUN NOV 19 2017

...WEST TENNESSEE...

CITY           SKY/WX    TMP DP  RH WIND       PRES   REMARKS
MEMPHIS INTL   SUNNY     49  25  39 N13       30.23F
6HR MIN TEMP:  38; 6HR MAX TEMP:  50;

NWS MEMPHIS      N/A     48 N/A N/A MISG        N/A
JACKSON        MOSUNNY   46  29  51 N10       30.21F
6HR MIN TEMP:  36; 6HR MAX TEMP:  47;

COVINGTON      SUNNY     46  27  46 N10G17    30.23F
BOLIVAR        SUNNY     48  27  43 NW10      30.20F
LEXINGTON      SUNNY     45  25  45 NW9G17    30.19F
SELMER         SUNNY     46  27  46 VRB3G17   30.18F
SAVANNAH       SUNNY     46  27  46 VRB5G20   30.18F
DYERSBURG      SUNNY     45  27  49 NW9       30.23F
6HR MIN TEMP:  38; 6HR MAX TEMP:  45;

UNION CITY     SUNNY     43  25  49 NW7G14    30.21F
PARIS          SUNNY     43  27  52 W6G14     30.18F
HUNTINGDON     SUNNY     45  27  49 VRB7G14   30.19F


...EASTERN ARKANSAS...

CITY           SKY/WX    TMP DP  RH WIND       PRES   REMARKS
JONESBORO      SUNNY     48  24  39 NW12G20   30.25F
6HR MIN TEMP:  38; 6HR MAX TEMP:  48;

WEST MEMPHIS   SUNNY     49  23  36 N16G24    30.24F
6HR MIN TEMP:  38; 6HR MAX TEMP:  49;

BATESVILLE     SUNNY     52  20  28 NW13      30.26F
6HR MIN TEMP:  38; 6HR MAX TEMP:  52;

NEWPORT        SUNNY     51  21  30 NW16G26   30.26F
6HR MIN TEMP:  38; 6HR MAX TEMP:  51;

WALNUT RIDGE     N/A     49  20  31 MISG        N/A
6HR MIN TEMP:  34; 6HR MAX TEMP:  49;

BLYTHEVILLE    SUNNY     48  28  46 N13G20    30.25F
6HR MIN TEMP:  34; 6HR MAX TEMP:  49;

SEARCY         SUNNY     55  22  27 N8G16     30.27F
6HR MIN TEMP:  35; 6HR MAX TEMP:  55;

STUTTGART      SUNNY     55  24  30 N20       30.28F
6HR MIN TEMP:  38; 6HR MAX TEMP:  55;

PINE BLUFF     SUNNY     55  23  28 N12G22    30.28F
6HR MIN TEMP:  37; 6HR MAX TEMP:  56;

MONTICELLO     SUNNY     57  23  26 NE8       30.28F
6HR MIN TEMP:  40; 6HR MAX TEMP:  57;



...NORTH MISSISSIPPI...

CITY           SKY/WX    TMP DP  RH WIND       PRES   REMARKS
TUPELO         SUNNY     50  24  36 NW12G22   30.19F
6HR MIN TEMP:  39; 6HR MAX TEMP:  51;

BATESVILLE     SUNNY     52  21  30 NW9G17    30.24F
6HR MIN TEMP:  35; 6HR MAX TEMP:  52;

OLIVE BRANCH   SUNNY    N/A N/A N/A NW15G22   30.20F
TUNICA           N/A    N/A N/A N/A N20G25    30.25F
CLARKSDALE       N/A     54  27  35 N14G23    30.25F
CORINTH        SUNNY     48  28  46 NW12G20   30.20F
GREENWOOD      SUNNY     55  24  30 N16G23    30.24F
6HR MIN TEMP:  35; 6HR MAX TEMP:  56;

COLUMBUS       SUNNY     52  33  49 NW10      30.18F
6HR MIN TEMP:  37; 6HR MAX TEMP:  52;

STARKVILLE     SUNNY     52  27  37 NW10      30.20F
GOLDEN TRIANGL SUNNY     54  29  38 NW15G22   30.19F
6HR MIN TEMP:  39; 6HR MAX TEMP:  54;



...SOUTHEAST MISSOURI...

CITY           SKY/WX    TMP DP  RH WIND       PRES   REMARKS
KENNETT        SUNNY     46  25  42 NW10G17   30.23F
MALDEN         SUNNY     45  21  39 NW8       30.24F
WEST PLAINS    SUNNY     48  18  30 N16G24    30.25F
6HR MIN TEMP:  32; 6HR MAX TEMP:  48;

POPLAR BLUFF   SUNNY     45  18  34 NW3       30.23F
6HR MIN TEMP:  34; 6HR MAX TEMP:  46;

CAPE GIRARDEAU SUNNY     43  23  45 N13       30.22F
6HR MIN TEMP:  31; 6HR MAX TEMP:  43;



...NORTHWEST ALABAMA...

CITY           SKY/WX    TMP DP  RH WIND       PRES   REMARKS
MUSCLE SHOALS  SUNNY     50  24  36 NW9       30.18F
6HR MIN TEMP:  38; 6HR MAX TEMP:  50;



...MIDDLE TENNESSEE...

CITY           SKY/WX    TMP DP  RH WIND       PRES   REMARKS
NASHVILLE      MOSUNNY   46  21  37 N12G18    30.16F
6HR MIN TEMP:  40; 6HR MAX TEMP:  46;

CLARKSVILLE    SUNNY     42  22  44 NW14      30.17F
6HR MIN TEMP:  36; 6HR MAX TEMP:  42;

COLUMBIA       MOSUNNY   46  27  46 W8        30.14S


...WESTERN KENTUCKY...

CITY           SKY/WX    TMP DP  RH WIND       PRES   REMARKS
PADUCAH        SUNNY     44  24  45 W10G17    30.20F
6HR MIN TEMP:  33; 6HR MAX TEMP:  44;

FORT CAMPBELL  SUNNY     42  22  45 NW8       30.16F
6HR MIN TEMP:  36; 6HR MAX TEMP:  42;



...CENTRAL ARKANSAS...

CITY           SKY/WX    TMP DP  RH WIND       PRES   REMARKS
LITTLE ROCK    SUNNY     55  23  28 NW9G18    30.29F
6HR MIN TEMP:  37; 6HR MAX TEMP:  55;



SKY/WX REPORTED AS FAIR MEANS FEW OR NO CLOUDS BELOW
12 THOUSAND FEET.




USA.gov is the U.S. government's official web portal to all federal, state and local government web resources and services.